Time,TemperatureF,DewpointF,PressureIn,WindDirection,WindDirectionDegrees,WindSpeedMPH,WindSpeedGustMPH,Humidity,HourlyPrecipIn,Conditions,Clouds,dailyrainin,SoftwareType,DateUTC
2013-02-19 00:03:00,28.8,25.9,30.04,NNE,22,0.0,0.0,89,0.00,CLR,,0.00,WeatherDisplay:10.37,2013-02-19 00:03:00,
2013-02-19 00:08:00,28.9,26.1,30.04,NNW,338,0.0,0.0,89,0.00,CLR,,0.00,WeatherDisplay:10.37,2013-02-19 00:08:00,
2013-02-19 00:13:00,28.9,26.1,30.04,NNE,22,0.0,0.0,89,0.00,CLR,,0.00,WeatherDisplay:10.37,2013-02-19 00:13:00,
2013-02-19 00:18:00,28.6,25.8,30.04,NE,45,0.0,0.0,89,0.00,CLR,,0.00,WeatherDisplay:10.37,2013-02-19 00:18:00,
2013-02-19 00:23:00,28.4,25.6,30.04,SSE,158,0.0,0.0,89,0.00,CLR,,0.00,WeatherDisplay:10.37,2013-02-19 00:23:00,
2013-02-19 00:29:00,28.6,25.8,30.04,SSE,158,0.0,0.0,89,0.00,CLR,,0.00,WeatherDisplay:10.37,2013-02-19 00:29:00,
2013-02-19 00:34:00,28.4,25.6,30.04,SSE,158,0.0,0.0,89,0.00,CLR,,0.00,WeatherDisplay:10.37,2013-02-19 00:34:00,
2013-02-19 00:39:00,28.4,25.6,30.04,NE,45,0.0,0.0,89,0.00,CLR,,0.00,WeatherDisplay:10.37,2013-02-19 00:39:00,
2013-02-19 00:44:00,28.4,25.6,30.04,SE,135,0.0,0.0,89,0.00,CLR,,0.00,WeatherDisplay:10.37,2013-02-19 00:44:00,
2013-02-19 00:49:00,28.2,25.4,30.04,ESE,112,0.0,0.0,89,0.00,CLR,,0.00,WeatherDisplay:10.37,2013-02-19 00:49:00,
2013-02-19 00:54:00,28.2,25.4,30.03,NW,315,0.0,0.0,89,0.00,CLR,,0.00,WeatherDisplay:10.37,2013-02-19 00:54:00,
2013-02-19 00:59:00,28.2,25.4,30.03,NNW,338,0.0,0.0,89,0.00,CLR,,0.00,WeatherDisplay:10.37,2013-02-19 00:59:00,
2013-02-19 01:04:00,28.0,25.2,30.03,SW,225,0.0,0.0,89,0.00,CLR,,0.00,WeatherDisplay:10.37,2013-02-19 01:04:00,
2013-02-19 01:09:00,27.9,25.0,30.04,SSW,202,0.0,0.1,89,0.00,CLR,,0.00,WeatherDisplay:10.37,2013-02-19 01:09:00,
2013-02-19 01:14:00,27.9,25.0,30.04,South,180,0.0,0.1,89,0.00,CLR,,0.00,WeatherDisplay:10.37,2013-02-19 01:14:00,
2013-02-19 01:19:00,27.9,25.0,30.04,SW,225,0.0,0.0,89,0.00,CLR,,0.00,WeatherDisplay:10.37,2013-02-19 01:19:00,
2013-02-19 01:24:00,27.9,25.0,30.04,SW,225,0.0,0.0,89,0.00,CLR,,0.00,WeatherDisplay:10.37,2013-02-19 01:24:00,
2013-02-19 01:29:00,27.7,24.9,30.04,WSW,248,0.0,0.1,89,0.00,CLR,,0.00,WeatherDisplay:10.37,2013-02-19 01:29:00,
2013-02-19 01:34:00,27.5,25.0,30.04,WSW,248,0.0,0.1,90,0.00,CLR,,0.00,WeatherDisplay:10.37,2013-02-19 01:34:00,
2013-02-19 01:39:00,27.5,24.7,30.04,South,180,0.0,0.0,89,0.00,CLR,,0.00,WeatherDisplay:10.37,2013-02-19 01:39:00,
2013-02-19 01:44:00,27.5,25.0,30.04,SW,225,0.0,0.0,90,0.00,CLR,,0.00,WeatherDisplay:10.37,2013-02-19 01:44:00,
2013-02-19 01:49:00,27.5,25.0,30.04,WNW,292,0.0,0.0,90,0.00,CLR,,0.00,WeatherDisplay:10.37,2013-02-19 01:49:00,
2013-02-19 01:55:00,27.5,25.0,30.04,WSW,248,0.0,0.0,90,0.00,CLR,,0.00,WeatherDisplay:10.37,2013-02-19 01:55:00,
2013-02-19 02:00:00,27.5,25.0,30.04,WSW,248,0.0,0.1,90,0.00,CLR,,0.00,WeatherDisplay:10.37,2013-02-19 02:00:00,
2013-02-19 02:05:00,27.1,24.6,30.04,WSW,248,1.2,1.2,90,0.00,CLR,,0.00,WeatherDisplay:10.37,2013-02-19 02:05:00,
2013-02-19 02:10:00,27.1,24.6,30.04,NW,315,0.0,0.3,90,0.00,CLR,,0.00,WeatherDisplay:10.37,2013-02-19 02:10:00,
2013-02-19 02:15:00,27.1,24.6,30.04,North,0,2.3,2.3,90,0.00,CLR,,0.00,WeatherDisplay:10.37,2013-02-19 02:15:00,
2013-02-19 02:20:00,27.1,24.6,30.04,WSW,248,0.0,0.2,90,0.00,CLR,,0.00,WeatherDisplay:10.37,2013-02-19 02:20:00,
2013-02-19 02:25:00,26.8,24.2,30.04,NW,315,0.0,0.0,90,0.00,CLR,,0.00,WeatherDisplay:10.37,2013-02-19 02:25:00,
2013-02-19 02:31:00,26.8,24.2,30.03,South,180,0.0,0.0,90,0.00,CLR,,0.00,WeatherDisplay:10.37,2013-02-19 02:31:00,
2013-02-19 02:36:00,26.8,24.2,30.03,SW,225,0.0,0.0,90,0.00,CLR,,0.00,WeatherDisplay:10.37,2013-02-19 02:36:00,
2013-02-19 02:41:00,26.6,24.1,30.03,South,180,0.0,0.0,90,0.00,CLR,,0.00,WeatherDisplay:10.37,2013-02-19 02:41:00,
2013-02-19 02:46:00,26.6,24.1,30.03,South,180,0.0,0.0,90,0.00,CLR,,0.00,WeatherDisplay:10.37,2013-02-19 02:46:00,
2013-02-19 02:51:00,26.8,24.2,30.03,ESE,112,0.0,0.0,90,0.00,CLR,,0.00,WeatherDisplay:10.37,2013-02-19 02:51:00,
2013-02-19 02:56:00,26.4,23.9,30.03,SSE,158,0.0,0.0,90,0.00,CLR,,0.00,WeatherDisplay:10.37,2013-02-19 02:56:00,
2013-02-19 03:01:00,26.4,23.9,30.03,SSE,158,0.0,0.0,90,0.00,CLR,,0.00,WeatherDisplay:10.37,2013-02-19 03:01:00,
2013-02-19 03:06:00,26.4,23.9,30.03,South,180,0.0,0.0,90,0.00,CLR,,0.00,WeatherDisplay:10.37,2013-02-19 03:06:00,
2013-02-19 03:12:00,26.2,23.7,30.03,SW,225,0.0,0.0,90,0.00,CLR,,0.00,WeatherDisplay:10.37,2013-02-19 03:12:00,
2013-02-19 03:17:00,26.4,23.9,30.03,South,180,0.0,0.0,90,0.00,CLR,,0.00,WeatherDisplay:10.37,2013-02-19 03:17:00,
2013-02-19 03:22:00,26.1,23.5,30.03,WSW,248,0.0,0.0,90,0.00,CLR,,0.00,WeatherDisplay:10.37,2013-02-19 03:22:00,
2013-02-19 03:27:00,26.1,23.5,30.03,SSW,202,0.0,0.0,90,0.00,CLR,,0.00,WeatherDisplay:10.37,2013-02-19 03:27:00,
2013-02-19 03:32:00,26.1,23.5,30.02,SE,135,0.0,0.0,90,0.00,CLR,,0.00,WeatherDisplay:10.37,2013-02-19 03:32:00,
2013-02-19 03:37:00,25.9,23.4,30.02,SW,225,0.0,0.0,90,0.00,CLR,,0.00,WeatherDisplay:10.37,2013-02-19 03:37:00,
2013-02-19 03:42:00,26.1,23.5,30.02,SW,225,0.0,0.0,90,0.00,CLR,,0.00,WeatherDisplay:10.37,2013-02-19 03:42:00,
2013-02-19 03:47:00,25.7,23.2,30.02,SE,135,0.0,0.0,90,0.00,CLR,,0.00,WeatherDisplay:10.37,2013-02-19 03:47:00,
2013-02-19 03:52:00,25.7,23.2,30.02,SSW,202,0.0,0.0,90,0.00,CLR,,0.00,WeatherDisplay:10.37,2013-02-19 03:52:00,
2013-02-19 03:57:00,25.7,23.2,30.02,South,180,0.0,0.0,90,0.00,CLR,,0.00,WeatherDisplay:10.37,2013-02-19 03:57:00,
2013-02-19 04:02:00,25.7,23.2,30.02,South,180,0.0,0.0,90,0.00,CLR,,0.00,WeatherDisplay:10.37,2013-02-19 04:02:00,
2013-02-19 04:07:00,25.7,23.2,30.02,WSW,248,0.0,0.0,90,0.00,CLR,,0.00,WeatherDisplay:10.37,2013-02-19 04:07:00,
2013-02-19 04:12:00,25.5,23.0,30.01,SSW,202,0.0,0.0,90,0.00,CLR,,0.00,WeatherDisplay:10.37,2013-02-19 04:12:00,
2013-02-19 04:17:00,25.5,23.0,30.01,SW,225,0.0,0.0,90,0.00,CLR,,0.00,WeatherDisplay:10.37,2013-02-19 04:17:00,
2013-02-19 04:22:00,25.5,23.0,30.01,SW,225,0.0,0.0,90,0.00,CLR,,0.00,WeatherDisplay:10.37,2013-02-19 04:22:00,
2013-02-19 04:27:00,25.3,22.8,30.01,SSW,202,0.0,0.0,90,0.00,CLR,,0.00,WeatherDisplay:10.37,2013-02-19 04:27:00,
2013-02-19 04:32:00,25.3,22.8,30.02,SSW,202,0.0,0.0,90,0.00,CLR,,0.00,WeatherDisplay:10.37,2013-02-19 04:32:00,
2013-02-19 04:37:00,25.3,22.8,30.02,SW,225,0.0,0.0,90,0.00,CLR,,0.00,WeatherDisplay:10.37,2013-02-19 04:37:00,
2013-02-19 04:42:00,25.3,22.8,30.02,WSW,248,0.0,0.0,90,0.00,CLR,,0.00,WeatherDisplay:10.37,2013-02-19 04:42:00,
2013-02-19 04:47:00,25.3,22.8,30.02,SW,225,0.0,0.1,90,0.00,CLR,,0.00,WeatherDisplay:10.37,2013-02-19 04:47:00,
2013-02-19 04:52:00,25.3,22.8,30.02,SW,225,0.0,0.2,90,0.00,CLR,,0.00,WeatherDisplay:10.37,2013-02-19 04:52:00,
2013-02-19 04:58:00,25.3,22.8,30.02,WSW,248,0.0,0.1,90,0.00,CLR,,0.00,WeatherDisplay:10.37,2013-02-19 04:58:00,
2013-02-19 05:00:00,25.3,22.8,30.02,ENE,68,0.0,0.1,90,0.00,CLR,,0.00,WeatherDisplay:10.37,2013-02-19 05:00:00,
2013-02-19 05:05:00,25.3,22.8,30.02,ESE,112,0.0,0.0,90,0.00,CLR,,0.00,WeatherDisplay:10.37,2013-02-19 05:05:00,
2013-02-19 05:10:00,25.0,22.5,30.02,SE,135,0.0,0.0,90,0.00,CLR,,0.00,WeatherDisplay:10.37,2013-02-19 05:10:00,
2013-02-19 05:15:00,25.0,22.5,30.02,South,180,0.0,0.0,90,0.00,CLR,,0.00,WeatherDisplay:10.37,2013-02-19 05:15:00,
2013-02-19 05:20:00,25.0,22.5,30.02,South,180,0.0,0.0,90,0.00,CLR,,0.00,WeatherDisplay:10.37,2013-02-19 05:20:00,
2013-02-19 05:25:00,24.8,22.3,30.02,SE,135,0.0,0.0,90,0.00,CLR,,0.00,WeatherDisplay:10.37,2013-02-19 05:25:00,
2013-02-19 05:30:00,24.8,22.3,30.02,West,270,0.0,0.0,90,0.00,CLR,,0.00,WeatherDisplay:10.37,2013-02-19 05:30:00,
2013-02-19 05:35:00,24.8,22.3,30.02,SSE,158,0.0,0.0,90,0.00,CLR,,0.00,WeatherDisplay:10.37,2013-02-19 05:35:00,
2013-02-19 05:40:00,25.0,22.5,30.02,South,180,0.0,0.0,90,0.00,CLR,,0.00,WeatherDisplay:10.37,2013-02-19 05:40:00,
2013-02-19 05:45:00,24.6,22.1,30.02,SW,225,0.0,0.0,90,0.00,CLR,,0.00,WeatherDisplay:10.37,2013-02-19 05:45:00,
2013-02-19 05:50:00,24.6,22.1,30.02,SW,225,0.0,0.0,90,0.00,CLR,,0.00,WeatherDisplay:10.37,2013-02-19 05:50:00,
2013-02-19 05:55:00,24.6,22.1,30.02,WSW,248,0.0,0.0,90,0.00,CLR,,0.00,WeatherDisplay:10.37,2013-02-19 05:55:00,
2013-02-19 06:00:00,24.6,22.1,30.02,South,180,0.0,0.0,90,0.00,CLR,,0.00,WeatherDisplay:10.37,2013-02-19 06:00:00,
2013-02-19 06:05:00,24.6,22.1,30.02,West,270,0.0,0.0,90,0.00,CLR,,0.00,WeatherDisplay:10.37,2013-02-19 06:05:00,
2013-02-19 06:10:00,24.6,22.1,30.01,South,180,0.0,0.0,90,0.00,CLR,,0.00,WeatherDisplay:10.37,2013-02-19 06:10:00,
2013-02-19 06:15:00,24.6,22.1,30.01,SSE,158,0.0,0.0,90,0.00,CLR,,0.00,WeatherDisplay:10.37,2013-02-19 06:15:00,
2013-02-19 06:20:00,24.3,21.8,30.01,SSW,202,0.0,0.0,90,0.00,CLR,,0.00,WeatherDisplay:10.37,2013-02-19 06:20:00,
2013-02-19 06:25:00,24.3,21.8,30.01,South,180,0.0,0.0,90,0.00,CLR,,0.00,WeatherDisplay:10.37,2013-02-19 06:25:00,
2013-02-19 06:30:00,24.3,21.8,30.01,South,180,0.0,0.0,90,0.00,CLR,,0.00,WeatherDisplay:10.37,2013-02-19 06:30:00,
2013-02-19 06:35:00,24.3,21.8,30.01,SW,225,0.0,0.0,90,0.00,CLR,,0.00,WeatherDisplay:10.37,2013-02-19 06:35:00,
2013-02-19 06:40:00,24.3,21.8,30.01,SW,225,0.0,0.0,90,0.00,CLR,,0.00,WeatherDisplay:10.37,2013-02-19 06:40:00,
2013-02-19 06:45:00,24.3,22.0,30.01,SW,225,0.0,0.0,91,0.00,CLR,,0.00,WeatherDisplay:10.37,2013-02-19 06:45:00,
2013-02-19 06:50:00,24.3,22.0,30.02,South,180,0.0,0.0,91,0.00,CLR,,0.00,WeatherDisplay:10.37,2013-02-19 06:50:00,
2013-02-19 06:55:00,24.3,22.0,30.02,SW,225,0.0,0.0,91,0.00,CLR,,0.00,WeatherDisplay:10.37,2013-02-19 06:55:00,
2013-02-19 07:00:00,24.6,22.4,30.02,SW,225,0.0,0.0,91,0.00,CLR,,0.00,WeatherDisplay:10.37,2013-02-19 07:00:00,
2013-02-19 07:05:00,24.6,22.4,30.02,SW,225,0.0,0.0,91,0.00,CLR,,0.00,WeatherDisplay:10.37,2013-02-19 07:05:00,
2013-02-19 07:11:00,24.6,22.4,30.02,SW,225,0.0,0.0,91,0.00,CLR,,0.00,WeatherDisplay:10.37,2013-02-19 07:11:00,
2013-02-19 07:16:00,24.6,22.4,30.02,WSW,248,0.0,0.0,91,0.00,CLR,,0.00,WeatherDisplay:10.37,2013-02-19 07:16:00,
2013-02-19 07:21:00,24.6,22.4,30.02,SSW,202,0.0,0.0,91,0.00,CLR,,0.00,WeatherDisplay:10.37,2013-02-19 07:21:00,
2013-02-19 07:26:00,24.6,22.4,30.02,WSW,248,0.0,0.0,91,0.00,CLR,,0.00,WeatherDisplay:10.37,2013-02-19 07:26:00,
2013-02-19 07:31:00,24.6,22.4,30.03,West,270,0.0,0.0,91,0.00,CLR,,0.00,WeatherDisplay:10.37,2013-02-19 07:31:00,
2013-02-19 07:36:00,25.0,22.7,30.03,WSW,248,0.0,0.0,91,0.00,CLR,,0.00,WeatherDisplay:10.37,2013-02-19 07:36:00,
2013-02-19 07:41:00,25.3,23.1,30.03,WSW,248,0.0,0.0,91,0.00,CLR,,0.00,WeatherDisplay:10.37,2013-02-19 07:41:00,
2013-02-19 07:46:00,25.7,23.4,30.03,NNE,22,0.0,0.0,91,0.00,CLR,,0.00,WeatherDisplay:10.37,2013-02-19 07:46:00,
2013-02-19 07:51:00,26.1,23.8,30.03,SSE,158,0.0,0.0,91,0.00,CLR,,0.00,WeatherDisplay:10.37,2013-02-19 07:51:00,
2013-02-19 07:56:00,26.1,23.8,30.03,SE,135,0.0,0.0,91,0.00,CLR,,0.00,WeatherDisplay:10.37,2013-02-19 07:56:00,
2013-02-19 08:01:00,26.4,24.1,30.03,West,270,0.0,0.0,91,0.00,CLR,,0.00,WeatherDisplay:10.37,2013-02-19 08:01:00,
2013-02-19 08:06:00,26.8,24.5,30.03,SW,225,0.0,0.0,91,0.00,CLR,,0.00,WeatherDisplay:10.37,2013-02-19 08:06:00,
2013-02-19 08:11:00,26.8,24.5,30.03,SW,225,0.0,0.0,91,0.00,CLR,,0.00,WeatherDisplay:10.37,2013-02-19 08:11:00,
2013-02-19 08:16:00,27.1,24.9,30.03,WSW,248,0.0,0.0,91,0.00,CLR,,0.00,WeatherDisplay:10.37,2013-02-19 08:16:00,
2013-02-19 08:21:00,27.1,24.9,30.03,SSE,158,0.0,0.0,91,0.00,CLR,,0.00,WeatherDisplay:10.37,2013-02-19 08:21:00,
2013-02-19 08:26:00,27.5,25.2,30.03,SSE,158,0.0,0.0,91,0.00,CLR,,0.00,WeatherDisplay:10.37,2013-02-19 08:26:00,
2013-02-19 08:31:00,27.5,25.2,30.03,SSE,158,0.0,0.0,91,0.00,CLR,,0.00,WeatherDisplay:10.37,2013-02-19 08:31:00,
2013-02-19 08:36:00,27.5,25.2,30.03,South,180,0.0,0.0,91,0.00,CLR,,0.00,WeatherDisplay:10.37,2013-02-19 08:36:00,
2013-02-19 08:41:00,27.9,25.6,30.03,SSW,202,0.0,0.0,91,0.00,CLR,,0.00,WeatherDisplay:10.37,2013-02-19 08:41:00,
2013-02-19 08:46:00,27.9,25.6,30.03,ESE,112,0.0,0.0,91,0.00,CLR,,0.00,WeatherDisplay:10.37,2013-02-19 08:46:00,
2013-02-19 08:51:00,28.2,25.9,30.03,SSW,202,0.0,0.0,91,0.00,CLR,,0.00,WeatherDisplay:10.37,2013-02-19 08:51:00,
2013-02-19 08:56:00,28.6,26.6,30.03,South,180,0.0,0.0,92,0.00,CLR,,0.00,WeatherDisplay:10.37,2013-02-19 08:56:00,
2013-02-19 09:01:00,28.9,26.6,30.03,SSE,158,0.0,0.0,91,0.00,CLR,,0.00,WeatherDisplay:10.37,2013-02-19 09:01:00,
2013-02-19 09:06:00,29.7,27.6,30.03,SSW,202,0.0,0.0,92,0.00,CLR,,0.00,WeatherDisplay:10.37,2013-02-19 09:06:00,
2013-02-19 09:11:00,29.8,27.8,30.03,SSW,202,0.0,0.0,92,0.00,CLR,,0.00,WeatherDisplay:10.37,2013-02-19 09:11:00,
2013-02-19 09:16:00,30.4,28.3,30.03,SW,225,0.0,0.0,92,0.00,CLR,,0.00,WeatherDisplay:10.37,2013-02-19 09:16:00,
2013-02-19 09:21:00,30.7,28.7,30.03,ESE,112,0.0,0.0,92,0.00,CLR,,0.00,WeatherDisplay:10.37,2013-02-19 09:21:00,
2013-02-19 09:26:00,31.1,29.0,30.03,SSW,202,0.0,0.0,92,0.00,CLR,,0.00,WeatherDisplay:10.37,2013-02-19 09:26:00,
2013-02-19 09:31:00,31.8,29.8,30.04,West,270,0.0,0.0,92,0.00,CLR,,0.00,WeatherDisplay:10.37,2013-02-19 09:31:00,
2013-02-19 09:36:00,32.2,30.1,30.04,South,180,0.0,0.0,92,0.00,CLR,,0.00,WeatherDisplay:10.37,2013-02-19 09:36:00,
2013-02-19 09:41:00,32.9,30.8,30.04,SW,225,0.0,0.0,92,0.00,CLR,,0.00,WeatherDisplay:10.37,2013-02-19 09:41:00,
2013-02-19 09:46:00,33.4,31.4,30.04,SSW,202,0.0,0.1,92,0.00,CLR,,0.00,WeatherDisplay:10.37,2013-02-19 09:46:00,
2013-02-19 09:51:00,34.0,31.9,30.03,SW,225,2.3,2.3,92,0.00,CLR,,0.00,WeatherDisplay:10.37,2013-02-19 09:51:00,
2013-02-19 09:56:00,34.7,32.6,30.03,South,180,1.4,1.4,92,0.00,CLR,,0.00,WeatherDisplay:10.37,2013-02-19 09:56:00,
2013-02-19 10:01:00,35.1,33.0,30.03,SSW,202,2.0,2.0,92,0.00,CLR,,0.00,WeatherDisplay:10.37,2013-02-19 10:01:00,
2013-02-19 10:06:00,35.6,33.5,30.03,SW,225,2.3,2.3,92,0.00,CLR,,0.00,WeatherDisplay:10.37,2013-02-19 10:06:00,
2013-02-19 10:11:00,36.3,34.2,30.03,SSW,202,1.2,1.2,92,0.00,CLR,,0.00,WeatherDisplay:10.37,2013-02-19 10:11:00,
2013-02-19 10:16:00,36.5,34.4,30.03,West,270,1.2,1.2,92,0.00,CLR,,0.00,WeatherDisplay:10.37,2013-02-19 10:16:00,
2013-02-19 10:21:00,37.2,34.8,30.03,SSE,158,0.0,0.1,91,0.00,CLR,,0.00,WeatherDisplay:10.37,2013-02-19 10:21:00,
2013-02-19 10:26:00,37.6,35.2,30.03,WSW,248,0.0,0.0,91,0.00,CLR,,0.00,WeatherDisplay:10.37,2013-02-19 10:26:00,
2013-02-19 10:31:00,38.7,36.3,30.03,NW,315,0.0,0.0,91,0.00,CLR,,0.00,WeatherDisplay:10.37,2013-02-19 10:31:00,
2013-02-19 10:36:00,38.7,36.3,30.03,SW,225,0.0,0.0,91,0.00,CLR,,0.00,WeatherDisplay:10.37,2013-02-19 10:36:00,
2013-02-19 10:41:00,39.4,36.7,30.03,SSW,202,0.0,0.1,90,0.00,CLR,,0.00,WeatherDisplay:10.37,2013-02-19 10:41:00,
2013-02-19 10:46:00,39.7,37.0,30.03,West,270,0.0,0.2,90,0.00,CLR,,0.00,WeatherDisplay:10.37,2013-02-19 10:46:00,
2013-02-19 10:51:00,40.6,37.9,30.03,South,180,1.2,1.2,90,0.00,CLR,,0.00,WeatherDisplay:10.37,2013-02-19 10:51:00,
2013-02-19 10:56:00,41.9,38.9,30.03,SSE,158,1.2,1.2,89,0.00,CLR,,0.00,WeatherDisplay:10.37,2013-02-19 10:56:00,
2013-02-19 11:01:00,43.0,39.7,30.03,SSE,158,0.0,0.3,88,0.00,CLR,,0.00,WeatherDisplay:10.37,2013-02-19 11:01:00,
2013-02-19 11:06:00,43.3,40.0,30.03,South,180,1.2,1.2,88,0.00,CLR,,0.00,WeatherDisplay:10.37,2013-02-19 11:06:00,
2013-02-19 11:11:00,44.4,40.8,30.03,SSE,158,1.2,1.2,87,0.00,CLR,,0.00,WeatherDisplay:10.37,2013-02-19 11:11:00,
2013-02-19 11:16:00,45.0,41.3,30.03,SSW,202,2.3,2.3,87,0.00,CLR,,0.00,WeatherDisplay:10.37,2013-02-19 11:16:00,
2013-02-19 11:21:00,45.1,40.9,30.03,SSE,158,0.0,0.6,85,0.00,CLR,,0.00,WeatherDisplay:10.37,2013-02-19 11:21:00,
2013-02-19 11:26:00,45.5,41.3,30.03,WSW,248,0.0,0.5,85,0.00,CLR,,0.00,WeatherDisplay:10.37,2013-02-19 11:26:00,
2013-02-19 11:31:00,46.4,41.8,30.03,WSW,248,1.2,1.2,84,0.00,CLR,,0.00,WeatherDisplay:10.37,2013-02-19 11:31:00,
2013-02-19 11:36:00,46.4,41.5,30.03,SW,225,1.2,1.2,83,0.00,CLR,,0.00,WeatherDisplay:10.37,2013-02-19 11:36:00,
2013-02-19 11:41:00,46.2,41.0,30.03,ENE,68,1.2,1.2,82,0.00,CLR,,0.00,WeatherDisplay:10.37,2013-02-19 11:41:00,
2013-02-19 11:46:00,46.2,41.0,30.03,NNE,22,2.3,2.3,82,0.00,CLR,,0.00,WeatherDisplay:10.37,2013-02-19 11:46:00,
2013-02-19 11:51:00,46.2,40.7,30.02,SSE,158,2.3,2.3,81,0.00,CLR,,0.00,WeatherDisplay:10.37,2013-02-19 11:51:00,
2013-02-19 11:56:00,46.2,40.7,30.02,North,0,1.2,1.2,81,0.00,CLR,,0.00,WeatherDisplay:10.37,2013-02-19 11:56:00,
2013-02-19 12:01:00,46.4,40.6,30.02,ENE,68,1.2,1.2,80,0.00,CLR,,0.00,WeatherDisplay:10.37,2013-02-19 12:01:00,
2013-02-19 12:06:00,46.8,40.9,30.02,West,270,2.3,2.3,80,0.00,CLR,,0.00,WeatherDisplay:10.37,2013-02-19 12:06:00,
2013-02-19 12:11:00,46.8,40.6,30.01,WSW,248,2.3,2.3,79,0.00,CLR,,0.00,WeatherDisplay:10.37,2013-02-19 12:11:00,
2013-02-19 12:16:00,46.9,40.4,30.01,NW,315,2.3,2.3,78,0.00,CLR,,0.00,WeatherDisplay:10.37,2013-02-19 12:16:00,
2013-02-19 12:21:00,47.1,40.6,30.01,SW,225,2.3,2.3,78,0.00,CLR,,0.00,WeatherDisplay:10.37,2013-02-19 12:21:00,
2013-02-19 12:26:00,47.1,40.6,30.01,NNE,22,2.3,2.3,78,0.00,CLR,,0.00,WeatherDisplay:10.37,2013-02-19 12:26:00,
2013-02-19 12:31:00,47.7,40.8,30.00,NW,315,2.3,2.3,77,0.00,CLR,,0.00,WeatherDisplay:10.37,2013-02-19 12:31:00,
2013-02-19 12:36:00,47.7,40.5,30.00,ESE,112,2.3,2.3,76,0.00,CLR,,0.00,WeatherDisplay:10.37,2013-02-19 12:36:00,
2013-02-19 12:41:00,47.8,40.6,30.00,SSW,202,0.0,1.0,76,0.00,CLR,,0.00,WeatherDisplay:10.37,2013-02-19 12:41:00,
2013-02-19 12:46:00,47.8,40.3,30.00,NW,315,2.3,2.3,75,0.00,CLR,,0.00,WeatherDisplay:10.37,2013-02-19 12:46:00,
2013-02-19 12:51:00,48.4,40.5,30.00,South,180,1.2,1.2,74,0.00,CLR,,0.00,WeatherDisplay:10.37,2013-02-19 12:51:00,
2013-02-19 12:56:00,48.4,40.5,30.00,South,180,3.5,3.5,74,0.00,CLR,,0.00,WeatherDisplay:10.37,2013-02-19 12:56:00,
2013-02-19 13:01:00,48.6,40.6,30.00,SSE,158,0.0,1.6,74,0.00,CLR,,0.00,WeatherDisplay:10.37,2013-02-19 13:01:00,
2013-02-19 13:06:00,48.4,40.1,30.00,WSW,248,1.2,1.2,73,0.00,CLR,,0.00,WeatherDisplay:10.37,2013-02-19 13:06:00,
2013-02-19 13:11:00,48.9,41.0,29.99,WSW,248,3.5,3.5,74,0.00,CLR,,0.00,WeatherDisplay:10.37,2013-02-19 13:11:00,
2013-02-19 13:16:00,49.1,40.8,29.99,NW,315,3.5,3.5,73,0.00,CLR,,0.00,WeatherDisplay:10.37,2013-02-19 13:16:00,
2013-02-19 13:21:00,49.3,41.0,29.99,North,0,2.3,2.3,73,0.00,CLR,,0.00,WeatherDisplay:10.37,2013-02-19 13:21:00,
2013-02-19 13:26:00,49.3,40.6,29.99,South,180,3.5,3.5,72,0.00,CLR,,0.00,WeatherDisplay:10.37,2013-02-19 13:26:00,
2013-02-19 13:31:00,49.5,40.4,29.99,SSE,158,3.5,3.5,71,0.00,CLR,,0.00,WeatherDisplay:10.37,2013-02-19 13:31:00,
2013-02-19 13:36:00,49.6,40.6,29.99,South,180,3.5,3.5,71,0.00,CLR,,0.00,WeatherDisplay:10.37,2013-02-19 13:36:00,
2013-02-19 13:41:00,49.8,40.8,29.99,WSW,248,2.3,2.3,71,0.00,CLR,,0.00,WeatherDisplay:10.37,2013-02-19 13:41:00,
2013-02-19 13:46:00,49.5,40.4,29.99,SE,135,2.3,2.3,71,0.00,CLR,,0.00,WeatherDisplay:10.37,2013-02-19 13:46:00,
2013-02-19 13:51:00,49.8,40.8,29.97,SE,135,1.2,1.2,71,0.00,CLR,,0.00,WeatherDisplay:10.37,2013-02-19 13:51:00,
2013-02-19 13:56:00,50.0,41.0,29.97,SSW,202,2.3,2.3,71,0.00,CLR,,0.00,WeatherDisplay:10.37,2013-02-19 13:56:00,
2013-02-19 14:01:00,50.0,40.6,29.97,WSW,248,2.3,2.3,70,0.00,CLR,,0.00,WeatherDisplay:10.37,2013-02-19 14:01:00,
2013-02-19 14:06:00,50.0,40.2,29.97,SSE,158,3.5,3.5,69,0.00,CLR,,0.00,WeatherDisplay:10.37,2013-02-19 14:06:00,
2013-02-19 14:11:00,50.2,40.0,29.97,South,180,3.5,3.5,68,0.00,CLR,,0.00,WeatherDisplay:10.37,2013-02-19 14:11:00,
2013-02-19 14:16:00,50.2,40.0,29.97,NNW,338,1.2,1.8,68,0.00,CLR,,0.00,WeatherDisplay:10.37,2013-02-19 14:16:00,
2013-02-19 14:21:00,50.2,40.0,29.97,NNE,22,0.0,1.2,68,0.00,CLR,,0.00,WeatherDisplay:10.37,2013-02-19 14:21:00,
2013-02-19 14:26:00,50.4,39.8,29.97,WNW,292,3.5,3.5,67,0.00,CLR,,0.00,WeatherDisplay:10.37,2013-02-19 14:26:00,
2013-02-19 14:31:00,50.4,40.2,29.97,NE,45,1.2,1.5,68,0.00,CLR,,0.00,WeatherDisplay:10.37,2013-02-19 14:31:00,
2013-02-19 14:36:00,50.5,40.4,29.97,WNW,292,2.3,2.3,68,0.00,CLR,,0.00,WeatherDisplay:10.37,2013-02-19 14:36:00,
2013-02-19 14:41:00,50.5,40.4,29.97,West,270,0.0,0.9,68,0.00,CLR,,0.00,WeatherDisplay:10.37,2013-02-19 14:41:00,
2013-02-19 14:46:00,50.5,40.4,29.97,SW,225,0.0,0.6,68,0.00,CLR,,0.00,WeatherDisplay:10.37,2013-02-19 14:46:00,
2013-02-19 14:51:00,50.7,40.5,29.97,NW,315,2.3,2.3,68,0.00,CLR,,0.00,WeatherDisplay:10.37,2013-02-19 14:51:00,
2013-02-19 14:56:00,51.3,41.1,29.97,WSW,248,3.5,3.5,68,0.00,CLR,,0.00,WeatherDisplay:10.37,2013-02-19 14:56:00,
2013-02-19 15:01:00,52.5,41.9,29.97,SSE,158,3.5,3.5,67,0.00,CLR,,0.00,WeatherDisplay:10.37,2013-02-19 15:01:00,
2013-02-19 15:06:00,52.7,41.3,29.97,SSE,158,3.5,3.5,65,0.00,CLR,,0.00,WeatherDisplay:10.37,2013-02-19 15:06:00,
2013-02-19 15:11:00,53.1,41.6,29.97,North,0,0.0,1.5,65,0.00,CLR,,0.00,WeatherDisplay:10.37,2013-02-19 15:11:00,
2013-02-19 15:16:00,52.9,41.4,29.97,West,270,1.2,1.2,65,0.00,CLR,,0.00,WeatherDisplay:10.37,2013-02-19 15:16:00,
2013-02-19 15:21:00,52.2,40.3,29.97,SW,225,1.2,1.2,64,0.00,CLR,,0.00,WeatherDisplay:10.37,2013-02-19 15:21:00,
2013-02-19 15:26:00,51.6,40.2,29.97,NW,315,2.3,2.3,65,0.00,CLR,,0.00,WeatherDisplay:10.37,2013-02-19 15:26:00,
2013-02-19 15:31:00,51.6,39.8,29.96,WNW,292,3.5,3.5,64,0.00,CLR,,0.00,WeatherDisplay:10.37,2013-02-19 15:31:00,
2013-02-19 15:36:00,51.3,39.5,29.96,WNW,292,4.6,4.6,64,0.00,CLR,,0.00,WeatherDisplay:10.37,2013-02-19 15:36:00,
2013-02-19 15:41:00,50.9,39.5,29.96,NNE,22,3.5,3.5,65,0.00,CLR,,0.00,WeatherDisplay:10.37,2013-02-19 15:41:00,
2013-02-19 15:46:00,50.9,39.1,29.96,WSW,248,3.5,3.5,64,0.00,CLR,,0.00,WeatherDisplay:10.37,2013-02-19 15:46:00,
2013-02-19 15:51:00,50.5,39.2,29.96,NNW,338,2.3,2.3,65,0.00,CLR,,0.00,WeatherDisplay:10.37,2013-02-19 15:51:00,
2013-02-19 15:56:00,50.4,39.0,29.96,NW,315,3.5,3.5,65,0.00,CLR,,0.00,WeatherDisplay:10.37,2013-02-19 15:56:00,
2013-02-19 16:01:00,50.2,38.9,29.96,NW,315,3.5,3.5,65,0.00,CLR,,0.00,WeatherDisplay:10.37,2013-02-19 16:01:00,
2013-02-19 16:06:00,50.0,38.7,29.96,NW,315,3.5,3.5,65,0.00,CLR,,0.00,WeatherDisplay:10.37,2013-02-19 16:06:00,
2013-02-19 16:11:00,49.8,38.5,29.97,NW,315,2.3,2.3,65,0.00,CLR,,0.00,WeatherDisplay:10.37,2013-02-19 16:11:00,
2013-02-19 16:16:00,49.8,38.5,29.97,NNW,338,2.3,2.3,65,0.00,CLR,,0.00,WeatherDisplay:10.37,2013-02-19 16:16:00,
2013-02-19 16:21:00,49.5,38.2,29.97,NW,315,2.3,2.3,65,0.00,CLR,,0.00,WeatherDisplay:10.37,2013-02-19 16:21:00,
2013-02-19 16:26:00,49.1,37.8,29.97,WSW,248,2.3,2.3,65,0.00,CLR,,0.00,WeatherDisplay:10.37,2013-02-19 16:26:00,
2013-02-19 16:31:00,48.4,37.5,29.96,NNW,338,0.0,0.6,66,0.00,CLR,,0.00,WeatherDisplay:10.37,2013-02-19 16:31:00,
2013-02-19 16:36:00,48.0,37.6,29.96,NW,315,2.3,2.3,67,0.00,CLR,,0.00,WeatherDisplay:10.37,2013-02-19 16:36:00,
2013-02-19 16:41:00,47.8,37.0,29.96,WNW,292,2.3,2.3,66,0.00,CLR,,0.00,WeatherDisplay:10.37,2013-02-19 16:41:00,
2013-02-19 16:46:00,47.5,36.7,29.96,NW,315,1.2,1.2,66,0.00,CLR,,0.00,WeatherDisplay:10.37,2013-02-19 16:46:00,
2013-02-19 16:51:00,46.9,36.5,29.96,NNE,22,0.0,0.7,67,0.00,CLR,,0.00,WeatherDisplay:10.37,2013-02-19 16:51:00,
2013-02-19 16:56:00,46.4,36.0,29.96,NW,315,0.0,0.3,67,0.00,CLR,,0.00,WeatherDisplay:10.37,2013-02-19 16:56:00,
2013-02-19 17:01:00,45.5,35.5,29.96,NW,315,0.0,0.2,68,0.00,CLR,,0.00,WeatherDisplay:10.37,2013-02-19 17:01:00,
2013-02-19 17:06:00,45.0,35.4,29.96,NNW,338,0.0,0.1,69,0.00,CLR,,0.00,WeatherDisplay:10.37,2013-02-19 17:06:00,
2013-02-19 17:11:00,44.4,35.2,29.97,WNW,292,0.0,0.0,70,0.00,CLR,,0.00,WeatherDisplay:10.37,2013-02-19 17:11:00,
2013-02-19 17:16:00,43.9,34.7,29.97,NW,315,0.0,0.0,70,0.00,CLR,,0.00,WeatherDisplay:10.37,2013-02-19 17:16:00,
2013-02-19 17:21:00,43.5,34.7,29.97,NW,315,0.0,0.0,71,0.00,CLR,,0.00,WeatherDisplay:10.37,2013-02-19 17:21:00,
2013-02-19 17:26:00,43.3,34.9,29.97,West,270,0.0,0.0,72,0.00,CLR,,0.00,WeatherDisplay:10.37,2013-02-19 17:26:00,
2013-02-19 17:31:00,42.6,34.6,29.97,WSW,248,1.2,1.2,73,0.00,CLR,,0.00,WeatherDisplay:10.37,2013-02-19 17:31:00,
2013-02-19 17:36:00,42.3,34.6,29.97,SW,225,1.2,1.2,74,0.00,CLR,,0.00,WeatherDisplay:10.37,2013-02-19 17:36:00,
2013-02-19 17:41:00,41.4,34.0,29.97,WSW,248,0.0,0.1,75,0.00,CLR,,0.00,WeatherDisplay:10.37,2013-02-19 17:41:00,
2013-02-19 17:46:00,41.0,33.7,29.97,SW,225,0.0,0.0,75,0.00,CLR,,0.00,WeatherDisplay:10.37,2013-02-19 17:46:00,
2013-02-19 17:51:00,40.6,33.7,29.98,SW,225,0.0,0.0,76,0.00,CLR,,0.00,WeatherDisplay:10.37,2013-02-19 17:51:00,
2013-02-19 17:56:00,40.3,33.6,29.98,SSW,202,0.0,0.0,77,0.00,CLR,,0.00,WeatherDisplay:10.37,2013-02-19 17:56:00,
2013-02-19 18:01:00,39.9,33.3,29.98,SW,225,0.0,0.0,77,0.00,CLR,,0.00,WeatherDisplay:10.37,2013-02-19 18:01:00,
2013-02-19 18:06:00,39.7,33.4,29.98,SW,225,0.0,0.0,78,0.00,CLR,,0.00,WeatherDisplay:10.37,2013-02-19 18:06:00,
2013-02-19 18:11:00,38.7,32.4,29.98,WSW,248,0.0,0.0,78,0.00,CLR,,0.00,WeatherDisplay:10.37,2013-02-19 18:11:00,
2013-02-19 18:16:00,38.5,32.2,29.98,WSW,248,0.0,0.0,78,0.00,CLR,,0.00,WeatherDisplay:10.37,2013-02-19 18:16:00,
2013-02-19 18:21:00,37.8,31.8,29.98,West,270,0.0,0.0,79,0.00,CLR,,0.00,WeatherDisplay:10.37,2013-02-19 18:21:00,
2013-02-19 18:26:00,37.6,31.7,29.98,SW,225,0.0,0.0,79,0.00,CLR,,0.00,WeatherDisplay:10.37,2013-02-19 18:26:00,
2013-02-19 18:31:00,37.2,31.6,29.99,WSW,248,0.0,0.0,80,0.00,CLR,,0.00,WeatherDisplay:10.37,2013-02-19 18:31:00,
2013-02-19 18:36:00,37.0,31.8,29.99,SW,225,0.0,0.0,81,0.00,CLR,,0.00,WeatherDisplay:10.37,2013-02-19 18:36:00,
2013-02-19 18:41:00,36.9,31.6,29.99,WSW,248,0.0,0.0,81,0.00,CLR,,0.00,WeatherDisplay:10.37,2013-02-19 18:41:00,
2013-02-19 18:46:00,36.5,31.2,29.99,SW,225,0.0,0.0,81,0.00,CLR,,0.00,WeatherDisplay:10.37,2013-02-19 18:46:00,
2013-02-19 18:51:00,36.3,31.4,29.99,SW,225,0.0,0.0,82,0.00,CLR,,0.00,WeatherDisplay:10.37,2013-02-19 18:51:00,
2013-02-19 18:56:00,36.3,31.4,29.99,SW,225,2.3,2.3,82,0.00,CLR,,0.00,WeatherDisplay:10.37,2013-02-19 18:56:00,
2013-02-19 19:01:00,36.1,31.5,29.99,SW,225,0.0,1.2,83,0.00,CLR,,0.00,WeatherDisplay:10.37,2013-02-19 19:01:00,
2013-02-19 19:06:00,36.0,31.3,29.99,WSW,248,0.0,0.5,83,0.00,CLR,,0.00,WeatherDisplay:10.37,2013-02-19 19:06:00,
2013-02-19 19:11:00,35.6,30.9,29.99,WSW,248,0.0,0.1,83,0.00,CLR,,0.00,WeatherDisplay:10.37,2013-02-19 19:11:00,
2013-02-19 19:16:00,35.1,30.1,29.99,WSW,248,0.0,0.0,82,0.00,CLR,,0.00,WeatherDisplay:10.37,2013-02-19 19:16:00,
2013-02-19 19:21:00,34.3,29.7,29.99,WSW,248,1.2,0.0,83,0.00,CLR,,0.00,WeatherDisplay:10.37,2013-02-19 19:21:00,
2013-02-19 19:26:00,34.2,29.5,29.99,WSW,248,1.2,1.2,83,0.00,CLR,,0.00,WeatherDisplay:10.37,2013-02-19 19:26:00,
2013-02-19 19:31:00,34.2,29.5,29.99,West,270,1.2,1.2,83,0.00,CLR,,0.00,WeatherDisplay:10.37,2013-02-19 19:31:00,
2013-02-19 19:36:00,34.0,29.7,29.99,SW,225,0.0,0.3,84,0.00,CLR,,0.00,WeatherDisplay:10.37,2013-02-19 19:36:00,
2013-02-19 19:41:00,33.6,29.3,29.99,SW,225,0.0,0.0,84,0.00,CLR,,0.00,WeatherDisplay:10.37,2013-02-19 19:41:00,
2013-02-19 19:46:00,33.4,29.1,29.99,WSW,248,1.2,0.0,84,0.00,CLR,,0.00,WeatherDisplay:10.37,2013-02-19 19:46:00,
2013-02-19 19:51:00,33.3,29.2,29.99,South,180,1.2,1.2,85,0.00,CLR,,0.00,WeatherDisplay:10.37,2013-02-19 19:51:00,
2013-02-19 19:56:00,33.3,29.2,29.99,SW,225,1.2,1.2,85,0.00,CLR,,0.00,WeatherDisplay:10.37,2013-02-19 19:56:00,
2013-02-19 20:01:00,33.3,29.2,29.99,WSW,248,0.0,0.3,85,0.00,CLR,,0.00,WeatherDisplay:10.37,2013-02-19 20:01:00,
2013-02-19 20:06:00,32.9,28.9,29.99,SSW,202,1.2,1.2,85,0.00,CLR,,0.00,WeatherDisplay:10.37,2013-02-19 20:06:00,
2013-02-19 20:11:00,32.9,28.9,29.99,WSW,248,2.3,2.3,85,0.00,CLR,,0.00,WeatherDisplay:10.37,2013-02-19 20:11:00,
2013-02-19 20:16:00,32.9,29.2,29.99,SW,225,0.0,0.3,86,0.00,CLR,,0.00,WeatherDisplay:10.37,2013-02-19 20:16:00,
2013-02-19 20:21:00,32.7,29.0,29.99,SW,225,1.2,1.2,86,0.00,CLR,,0.00,WeatherDisplay:10.37,2013-02-19 20:21:00,
2013-02-19 20:26:00,32.5,28.8,29.99,SW,225,0.0,0.1,86,0.00,CLR,,0.00,WeatherDisplay:10.37,2013-02-19 20:26:00,
2013-02-19 20:31:00,32.2,28.5,29.99,NW,315,1.2,1.2,86,0.00,CLR,,0.00,WeatherDisplay:10.37,2013-02-19 20:31:00,
2013-02-19 20:36:00,32.2,28.5,29.99,North,0,2.3,2.3,86,0.00,CLR,,0.00,WeatherDisplay:10.37,2013-02-19 20:36:00,
2013-02-19 20:41:00,31.8,28.1,29.99,WSW,248,0.0,0.7,86,0.00,CLR,,0.00,WeatherDisplay:10.37,2013-02-19 20:41:00,
2013-02-19 20:46:00,31.8,28.1,29.99,SW,225,2.3,2.3,86,0.00,CLR,,0.00,WeatherDisplay:10.37,2013-02-19 20:46:00,
2013-02-19 20:51:00,31.8,28.4,30.00,WSW,248,1.2,1.2,87,0.00,CLR,,0.00,WeatherDisplay:10.37,2013-02-19 20:51:00,
2013-02-19 20:56:00,31.5,27.8,30.00,SW,225,0.0,0.3,86,0.00,CLR,,0.00,WeatherDisplay:10.37,2013-02-19 20:56:00,
2013-02-19 21:01:00,31.5,27.8,30.00,SSW,202,1.2,1.2,86,0.00,CLR,,0.00,WeatherDisplay:10.37,2013-02-19 21:01:00,
2013-02-19 21:06:00,31.1,27.7,30.00,WSW,248,1.2,1.2,87,0.00,CLR,,0.00,WeatherDisplay:10.37,2013-02-19 21:06:00,
2013-02-19 21:11:00,31.1,27.7,30.00,WSW,248,0.0,0.3,87,0.00,CLR,,0.00,WeatherDisplay:10.37,2013-02-19 21:11:00,
2013-02-19 21:16:00,31.1,27.7,30.00,SW,225,1.2,1.2,87,0.00,CLR,,0.00,WeatherDisplay:10.37,2013-02-19 21:16:00,
2013-02-19 21:21:00,31.1,27.7,30.00,SW,225,0.0,0.3,87,0.00,CLR,,0.00,WeatherDisplay:10.37,2013-02-19 21:21:00,
2013-02-19 21:26:00,31.1,27.7,30.00,WSW,248,0.0,0.1,87,0.00,CLR,,0.00,WeatherDisplay:10.37,2013-02-19 21:26:00,
2013-02-19 21:31:00,30.7,27.3,30.00,South,180,0.0,0.0,87,0.00,CLR,,0.00,WeatherDisplay:10.37,2013-02-19 21:31:00,
2013-02-19 21:36:00,30.6,27.2,30.00,WSW,248,0.0,0.0,87,0.00,CLR,,0.00,WeatherDisplay:10.37,2013-02-19 21:36:00,
2013-02-19 21:41:00,30.4,27.0,30.00,SW,225,0.0,0.0,87,0.00,CLR,,0.00,WeatherDisplay:10.37,2013-02-19 21:41:00,
2013-02-19 21:46:00,30.4,27.0,30.00,South,180,0.0,0.0,87,0.00,CLR,,0.00,WeatherDisplay:10.37,2013-02-19 21:46:00,
2013-02-19 21:51:00,30.4,27.3,30.00,ESE,112,0.0,0.0,88,0.00,CLR,,0.00,WeatherDisplay:10.37,2013-02-19 21:51:00,
2013-02-19 21:56:00,30.0,26.9,30.00,East,90,0.0,0.0,88,0.00,CLR,,0.00,WeatherDisplay:10.37,2013-02-19 21:56:00,
2013-02-19 22:01:00,30.0,26.9,30.00,ESE,112,0.0,0.0,88,0.00,CLR,,0.00,WeatherDisplay:10.37,2013-02-19 22:01:00,
2013-02-19 22:06:00,30.0,26.9,30.00,ENE,68,0.0,0.0,88,0.00,CLR,,0.00,WeatherDisplay:10.37,2013-02-19 22:06:00,
2013-02-19 22:11:00,29.7,26.5,30.00,NE,45,0.0,0.0,88,0.00,CLR,,0.00,WeatherDisplay:10.37,2013-02-19 22:11:00,
2013-02-19 22:16:00,29.7,26.5,30.00,NNE,22,0.0,0.0,88,0.00,CLR,,0.00,WeatherDisplay:10.37,2013-02-19 22:16:00,
2013-02-19 22:21:00,29.7,26.5,30.00,ENE,68,0.0,0.0,88,0.00,CLR,,0.00,WeatherDisplay:10.37,2013-02-19 22:21:00,
2013-02-19 22:26:00,29.7,26.5,30.00,ENE,68,0.0,0.0,88,0.00,CLR,,0.00,WeatherDisplay:10.37,2013-02-19 22:26:00,
2013-02-19 22:31:00,29.3,26.2,29.99,SE,135,0.0,0.0,88,0.00,CLR,,0.00,WeatherDisplay:10.37,2013-02-19 22:31:00,
2013-02-19 22:36:00,29.3,26.2,29.99,SW,225,0.0,0.0,88,0.00,CLR,,0.00,WeatherDisplay:10.37,2013-02-19 22:36:00,
2013-02-19 22:41:00,29.3,26.2,29.99,WSW,248,0.0,0.0,88,0.00,CLR,,0.00,WeatherDisplay:10.37,2013-02-19 22:41:00,
2013-02-19 22:46:00,29.3,26.2,29.99,WSW,248,0.0,0.0,88,0.00,CLR,,0.00,WeatherDisplay:10.37,2013-02-19 22:46:00,
2013-02-19 22:51:00,28.9,25.8,30.00,WSW,248,0.0,0.0,88,0.00,CLR,,0.00,WeatherDisplay:10.37,2013-02-19 22:51:00,
2013-02-19 22:56:00,28.9,25.8,30.00,SSW,202,0.0,0.0,88,0.00,CLR,,0.00,WeatherDisplay:10.37,2013-02-19 22:56:00,
2013-02-19 23:01:00,28.9,25.8,30.00,South,180,0.0,0.0,88,0.00,CLR,,0.00,WeatherDisplay:10.37,2013-02-19 23:01:00,
2013-02-19 23:06:00,28.9,26.1,30.00,SW,225,0.0,0.0,89,0.00,CLR,,0.00,WeatherDisplay:10.37,2013-02-19 23:06:00,
2013-02-19 23:11:00,28.9,26.1,30.00,SW,225,0.0,0.0,89,0.00,CLR,,0.00,WeatherDisplay:10.37,2013-02-19 23:11:00,
2013-02-19 23:16:00,28.6,25.8,30.00,SW,225,0.0,0.0,89,0.00,CLR,,0.00,WeatherDisplay:10.37,2013-02-19 23:16:00,
2013-02-19 23:21:00,28.6,25.8,30.00,SE,135,0.0,0.0,89,0.00,CLR,,0.00,WeatherDisplay:10.37,2013-02-19 23:21:00,
2013-02-19 23:26:00,28.4,25.6,30.00,SW,225,0.0,0.0,89,0.00,CLR,,0.00,WeatherDisplay:10.37,2013-02-19 23:26:00,
2013-02-19 23:31:00,28.4,25.6,30.00,SW,225,0.0,0.0,89,0.00,CLR,,0.00,WeatherDisplay:10.37,2013-02-19 23:31:00,
2013-02-19 23:36:00,28.2,25.4,30.00,SSE,158,0.0,0.0,89,0.00,CLR,,0.00,WeatherDisplay:10.37,2013-02-19 23:36:00,
2013-02-19 23:41:00,28.2,25.4,30.00,WSW,248,0.0,0.0,89,0.00,CLR,,0.00,WeatherDisplay:10.37,2013-02-19 23:41:00,
2013-02-19 23:46:00,28.2,25.4,30.00,West,270,0.0,0.0,89,0.00,CLR,,0.00,WeatherDisplay:10.37,2013-02-19 23:46:00,
2013-02-19 23:51:00,28.2,25.4,30.00,South,180,0.0,0.0,89,0.00,CLR,,0.00,WeatherDisplay:10.37,2013-02-19 23:51:00,
2013-02-19 23:56:00,28.2,25.4,30.00,SW,225,0.0,0.0,89,0.00,CLR,,0.00,WeatherDisplay:10.37,2013-02-19 23:56:00,